Location: Invercargill
(46.4000°S, 168.3500°E)
Time: 02:55:13
(UTC+13:00)

CZ-2C R/B - Pass Details

Date: 24 January 2019
Orbit: 785 x 870 km, 98.3° (Epoch: 21 February)

Event Time Altitude Azimuth Distance (km) Brightness Sun altitude
Exits shadow 23:30:08 - 340° (NNW) 2,864 5.1 -16.3°
Reaches altitude 10° 23:31:19 10° 334° (NNW) 2,459 4.8 -16.4°
Maximum altitude 23:36:01 29° 274° (W) 1,482 4.3 -16.9°
Drops below altitude 10° 23:40:42 10° 214° (SW) 2,438 6.4 -17.4°
Sets 23:43:22 0° 203° (SSW) 3,365 7.4 -17.6°
